Wind_Speed
20 16 12 18 21 26 28 29 28 29 32 28 27 24 24 23 19 14 19 13 14 14 14 18 8 13 15 13 7 7 6 8 10
21 21 18 16 19 27 27 30 29 28 32 29 28 27 24 23 21 19 16 16 18 18 10 14 19 8 18 14 9 9 9 10 10
11 20 20 18 19 27 27 29 30 27 32 31 29 26 26 24 22 23 23 16 19 16 17 23 14 13 17 14 6 6 9 11 9
9 6 14 16 19 27 27 25 29 29 29 29 28 27 26 24 24 23 22 22 16 22 13 16 16 11 14 10 6 10 10 11 12
12 7 7 13 14 24 27 25 27 29 30 29 30 28 27 28 25 24 23 23 21 18 21 20 15 13 12 13 13 14 14 16 14
12 10 9 11 14 14 23 22 26 29 30 28 29 27 27 25 26 25 24 26 26 24 23 21 19 19 19 18 19 19 18 18 18
16 12 12 11 12 13 19 20 20 26 29 30 27 28 26 26 26 27 28 25 29 26 26 25 25 23 20 22 22 21 20 21 22
20 16 16 14 14 11 16 19 20 20 27 28 27 24 26 26 28 25 25 24 23 26 25 23 23 23 23 22 21 21 24 24 22
13 15 16 17 16 16 14 20 19 20 18 23 23 19 21 21 19 21 22 20 18 18 19 20 21 23 21 22 23 24 28 26 23
15 24 17 16 17 17 20 22 22 20 20 18 20 18 19 21 19 19 18 19 20 20 20 20 20 21 21 22 23 25 27 22 27
6 18 20 18 15 19 23 24 23 21 22 20 20 19 18 17 17 16 15 14 15 14 15 16 14 15 17 18 21 23 25 25 25
18 11 18 17 25 24 23 22 22 22 21 20 19 18 17 17 16 14 13 15 15 12 12 13 15 15 16 17 19 21 23 26 26
24 4 34 23 27 29 26 24 24 23 22 21 19 19 17 15 15 14 15 14 14 13 12 13 13 14 15 16 17 16 18 20 22
21 40 58 35 37 32 30 29 26 23 22 20 20 19 17 16 15 16 13 12 11 10 8 7 8 10 11 11 11 11 12 12 15
20 36 17 20 22 24 27 30 29 23 20 20 20 19 17 15 13 11 10 11 9 6 6 8 10 11 7 6 8 9 7 7 6
16 23 12 32 8 21 22 20 26 22 22 23 21 17 14 16 13 8 12 7 5 5 10 10 11 10 6 3 5 5 5 6 6
9 16 18 17 35 19 22 20 20 19 21 23 24 19 16 14 11 10 7 6 8 8 9 11 7 2 3 3 3 5 4 4 3
9 17 19 18 13 20 29 29 24 23 22 22 19 18 15 13 10 10 8 2 6 4 4 3 3 2 3 5 9 8 6 5 3
13 10 18 18 17 15 30 37 34 31 24 22 20 19 17 14 16 13 12 9 5 3 5 4 8 6 4 4 3 4 4 6 6
12 12 12 19 16 8 19 3 23 29 28 20 19 19 19 16 7 16 15 15 14 9 2 3 6 7 6 4 6 7 9 10 9
Wind_Direction
180 196 221 170 166 172 180 175 175 177 176 186 194 200 206 223 228 210 213 223 226 229 223 242 231 217 231 208 210 237 246 269 261
171 181 192 193 171 174 177 170 176 180 175 183 192 203 205 211 220 220 225 221 235 242 229 230 235 235 246 225 202 229 240 249 281
156 176 183 194 167 170 176 173 176 183 176 181 190 203 204 208 213 216 223 230 222 229 234 236 220 175 221 245 199 236 247 253 262
139 172 175 179 168 173 177 179 176 181 178 184 190 200 204 207 211 214 221 230 233 229 234 233 249 216 208 225 231 229 236 251 252
133 157 181 167 167 161 172 181 175 180 185 188 190 198 208 204 210 214 214 221 233 228 236 241 250 253 244 239 240 241 240 244 246
145 158 170 167 168 159 170 182 179 183 184 191 191 197 204 205 206 211 221 213 216 223 226 232 236 242 237 237 238 243 241 243 245
158 166 161 165 165 160 163 173 174 179 184 191 194 196 203 205 208 212 216 226 213 215 218 224 232 234 244 238 236 241 247 245 242
292 172 168 168 162 161 164 170 177 183 183 190 194 198 197 204 212 216 224 225 220 215 218 226 233 238 242 246 242 244 243 245 249
228 181 175 171 165 163 167 173 177 182 185 184 189 201 197 202 211 214 221 227 228 232 223 225 234 236 240 246 246 244 249 241 236
112 278 192 177 169 164 168 172 176 177 187 184 187 198 202 202 207 213 220 232 238 239 239 239 244 247 252 248 247 251 255 255 250
259 235 169 172 174 167 166 170 174 176 180 185 181 195 198 197 204 204 209 217 227 239 246 247 248 252 254 260 260 260 262 259 259
336 84 322 166 171 162 163 168 168 168 171 172 174 184 192 198 197 200 210 219 226 228 230 239 248 259 263 265 267 269 267 271 261
339 48 222 232 165 151 152 158 160 162 167 169 175 182 185 190 193 200 212 214 211 219 241 247 252 256 258 265 270 272 270 268 261
346 307 283 170 158 148 154 156 159 165 167 173 177 175 174 176 185 197 204 212 219 221 228 239 249 261 267 270 268 265 268 275 240
257 270 17 159 138 139 149 157 157 167 167 168 166 159 163 165 163 174 179 176 175 186 227 243 252 252 258 251 266 261 271 285 280
280 283 344 30 115 129 141 158 155 164 162 158 149 153 158 148 162 188 153 160 197 243 235 239 245 235 160 198 251 266 269 271 275
298 323 332 76 195 157 149 161 158 154 154 151 147 148 167 162 173 175 169 187 207 230 273 234 199 112 160 199 255 252 269 249 273
305 318 325 322 330 177 153 156 152 150 148 144 148 153 166 154 178 174 166 126 93 118 321 355 95 211 255 225 249 209 224 233 180
298 301 314 315 313 196 157 160 150 145 151 158 168 164 163 174 174 183 181 151 122 198 253 218 197 186 204 233 198 142 159 161 178
290 295 292 302 313 119 134 241 121 139 152 171 170 171 175 172 203 176 176 174 160 151 118 120 168 174 160 172 160 140 137 129 136
Height
712 721 724 728 737 746 752 761 769 776 784 791 796 799 800 804 807 813 816 812 813 815 814 815 819 822 823 820 822 826 830 830 831
704 712 717 721 728 739 747 754 762 770 778 785 790 795 798 801 805 806 809 810 810 811 812 812 818 815 831 825 817 823 827 828 829
692 699 705 712 721 732 741 748 757 766 773 778 784 791 794 797 801 804 806 808 809 810 810 808 815 825 810 827 817 819 822 825 826
693 694 698 705 714 724 735 743 750 759 768 774 779 785 789 792 796 800 804 805 806 807 809 807 806 817 822 819 813 817 821 822 823
689 693 696 701 708 719 730 737 745 753 760 767 773 778 784 787 791 795 798 800 803 804 805 805 805 805 806 808 812 816 818 819 820
689 692 695 698 706 715 725 733 740 747 754 761 767 773 778 782 786 790 792 794 796 799 801 803 804 805 807 809 811 813 814 816 817
686 691 693 696 703 712 721 729 735 743 749 755 761 766 772 777 780 784 787 790 792 794 796 798 800 803 805 807 808 810 811 812 813
706 691 691 693 700 709 717 725 732 738 745 751 756 761 766 770 775 779 783 786 788 790 793 796 797 800 802 803 804 805 806 807 809
718 682 688 689 694 703 712 720 728 734 741 747 752 758 762 766 771 776 779 782 785 787 791 793 794 795 797 798 799 800 800 802 803
697 726 687 688 690 697 706 715 724 731 737 744 750 755 761 764 768 772 776 779 782 786 789 791 792 792 793 792 793 796 796 799 799
677 665 665 678 689 694 702 711 720 728 735 741 747 754 759 763 767 769 773 777 780 781 783 785 787 788 788 790 790 792 792 794 795
692 661 664 667 680 689 699 708 717 725 732 738 745 750 756 760 764 767 770 773 776 779 781 782 784 785 785 786 787 788 787 788 790
698 704 693 681 678 679 693 705 714 723 730 735 741 747 752 757 760 765 768 771 773 775 778 779 781 781 782 782 782 783 783 783 784
702 700 668 651 655 650 676 696 709 719 726 732 738 743 749 754 758 762 766 769 771 774 776 777 777 778 778 779 778 778 779 780 780
696 676 655 658 661 668 678 684 699 713 722 729 735 741 747 752 756 761 764 767 770 772 775 777 776 775 775 775 776 776 777 778 779
697 689 672 650 652 680 687 700 695 707 718 727 735 742 748 753 757 761 764 767 769 772 773 773 773 772 773 775 775 776 776 777 778
686 679 676 673 681 686 689 703 705 708 719 726 732 740 746 751 755 758 761 765 766 769 769 769 769 771 772 774 775 775 775 775 776
695 676 688 683 681 675 678 692 699 707 719 726 733 740 745 750 755 759 762 763 763 766 767 768 770 772 774 774 774 773 774 774 774
695 688 681 683 681 678 666 674 679 699 716 726 733 738 743 748 751 756 760 763 764 766 768 768 769 771 773 773 773 773 773 772 773
696 692 685 680 679 677 686 688 694 695 710 727 732 734 736 741 746 750 754 758 760 764 768 768 769 770 771 773 772 773 774 774 775